Погода в Вишнёвом

Украина / Одесская область     47°41′03″N   29°44′01″E
темп.,
°C
ветер,
м/с
пор.,
м/с
влажн.,
%
обл.,
%
осадки,
мм/ч
давл.,
гПа
погр.,
м
21 января, пт
пт2123:00−1з2292100 0.1 101037
02:00−2зюз49727 0.1 1009185
05:00−2зсз71379100 0.0 1010774
08:00−4з714795 0.0 1012615
11:00−1з813675 0.0 10141283
14:00−1зсз913565 0.0 10121270
17:00−2з71461100 0.0 1012622
20:00−3з71471100 0.0 1013801
22 января, сб
сб2223:00−3з7137865 0.0 1013709
02:00−4з7137999 0.0 1013714
05:00−4з61288100 0.0 1012672
08:00−5з6119196 0.0 1013467
11:00−2зсз6874100 0.0 1014815
14:00−2зсз686989 0.1 10141052
17:00−4з377949 0.0 1014170
20:00−4з5119130 0.0 1016450
23 января, вс
вс2323:00−5сз599075 0.0 1017409
02:00−6сз499272 0.0 1018363
05:00−6сз379571 0.1 1018308
08:00−6сз3596100 0.1 1019138
11:00−4ссв3481100 0.0 1021665
14:00−3ссв5667100 0.2 1021994
17:00−4ссв5978100 0.1 1024515
20:00−6ссв598771 0.1 1026549
24 января, пн
пн2423:00−7ссв5109198 0.0 1027494
02:00−8с599299 0.1 1029343
05:00−8ссз61189100 0.0 1029381
08:00−8ссз71387100 0.0 1030455
11:00−5с81277100 0.0 1029550
14:00−5ссз81289100 0.4 1028821
17:00−5с61192100 0.6 1029794
20:00−6с61192100 0.8 1030608
25 января, вт
вт2523:00−6с61091100 0.2 1029497
02:00−7с51093100 0.6 1029441
05:00−7ссз61091100 0.6 1029416
08:00−8ссз51091100 0.6 1029357
11:00−6ссз5783100 0.0 1029442
14:00−4ссз4577100 0.0 1027573
17:00−5сз2482100 0.0 1026130
20:00−7зсз2389100 0.0 102652